Location: Newark
(15.5700°N, 75.3700°E)
Time: 08:06:20
(UTC+00:00)

ISS - Pass Details

Date: 19 November 2019
Orbit: 411 x 421 km, 51.6° (Epoch: 11 December)

Event Time Altitude Azimuth Distance (km) Brightness Sun altitude
Rises 13:26:33 0° 247° (WSW) 2,337 1.9 -14.9°
Reaches altitude 10° 13:29:09 10° 269° (W) 1,479 0.3 -15.5°
Maximum altitude 13:31:23 17° 312° (NW) 1,137 -1.2 -16.0°
Drops below altitude 10° 13:33:45 10° 356° (N) 1,514 -1.1 -16.6°
Enters shadow 13:34:10 - 0° (N) 1,637 -0.9 -16.7°
